Time,TemperatureF,DewpointF,PressureIn,WindDirection,WindDirectionDegrees,WindSpeedMPH,WindSpeedGustMPH,Humidity,HourlyPrecipIn,Conditions,Clouds,dailyrainin,SolarRadiationWatts/m^2,SoftwareType,DateUTC
2013-05-05 00:09:00,56.8,32.7,29.90,NNW,342,8.0,8.0,40,0.00,,,0.00,0,Wunderground v.1.15,2013-05-05 07:09:00,
2013-05-05 00:19:00,56.6,33.2,29.89,NW,313,8.0,14.0,41,0.00,,,0.00,0,Wunderground v.1.15,2013-05-05 07:19:00,
2013-05-05 00:29:00,56.6,33.2,29.89,NNW,331,10.0,10.0,41,0.00,,,0.00,0,Wunderground v.1.15,2013-05-05 07:29:00,
2013-05-05 00:34:00,56.7,32.6,29.89,NW,326,10.0,10.0,40,0.00,,,0.00,0,Wunderground v.1.15,2013-05-05 07:34:00,
2013-05-05 00:39:00,56.8,32.7,29.89,NNW,337,11.0,11.0,40,0.00,,,0.00,0,Wunderground v.1.15,2013-05-05 07:39:00,
2013-05-05 00:44:00,56.6,33.2,29.89,NNW,327,9.0,11.0,41,0.00,,,0.00,0,Wunderground v.1.15,2013-05-05 07:44:00,
2013-05-05 00:54:00,56.1,33.3,29.89,NNW,330,9.0,9.0,42,0.00,,,0.00,0,Wunderground v.1.15,2013-05-05 07:54:00,
2013-05-05 01:00:00,56.1,32.7,29.88,NNW,340,11.0,11.0,41,0.00,,,0.00,0,Wunderground v.1.15,2013-05-05 08:00:00,
2013-05-05 01:10:00,55.9,33.1,29.88,North,355,9.0,12.0,42,0.00,,,0.00,0,Wunderground v.1.15,2013-05-05 08:10:00,
2013-05-05 01:15:00,55.7,32.9,29.88,NNW,334,9.0,12.0,42,0.00,,,0.00,0,Wunderground v.1.15,2013-05-05 08:15:00,
2013-05-05 01:25:00,55.9,33.1,29.87,NNW,337,7.0,10.0,42,0.00,,,0.00,0,Wunderground v.1.15,2013-05-05 08:25:00,
2013-05-05 01:30:00,55.8,33.0,29.88,NNW,327,3.0,3.0,42,0.00,,,0.00,0,Wunderground v.1.15,2013-05-05 08:30:00,
2013-05-05 01:35:00,55.6,32.8,29.87,NW,325,1.0,8.0,42,0.00,,,0.00,0,Wunderground v.1.15,2013-05-05 08:35:00,
2013-05-05 01:40:00,55.5,32.8,29.87,NNW,334,3.0,3.0,42,0.00,,,0.00,0,Wunderground v.1.15,2013-05-05 08:40:00,
2013-05-05 01:45:00,55.4,32.7,29.87,NNW,340,4.0,4.0,42,0.00,,,0.00,0,Wunderground v.1.15,2013-05-05 08:45:00,
2013-05-05 01:55:00,55.5,32.8,29.87,NNW,339,3.0,4.0,42,0.00,,,0.00,0,Wunderground v.1.15,2013-05-05 08:55:00,
2013-05-05 02:05:00,55.2,33.1,29.87,NNW,335,3.0,3.0,43,0.00,,,0.00,0,Wunderground v.1.15,2013-05-05 09:05:00,
2013-05-05 02:10:00,54.8,32.7,29.87,NNW,331,2.0,3.0,43,0.00,,,0.00,0,Wunderground v.1.15,2013-05-05 09:10:00,
2013-05-05 02:15:00,54.5,33.0,29.87,NNW,341,2.0,3.0,44,0.00,,,0.00,0,Wunderground v.1.15,2013-05-05 09:15:00,
2013-05-05 02:20:00,54.2,32.7,29.86,NNW,340,2.0,2.0,44,0.00,,,0.00,0,Wunderground v.1.15,2013-05-05 09:20:00,
2013-05-05 02:30:00,53.7,32.8,29.87,NNW,338,0.0,0.0,45,0.00,,,0.00,0,Wunderground v.1.15,2013-05-05 09:30:00,
2013-05-05 02:35:00,53.4,32.6,29.86,North,355,1.0,1.0,45,0.00,,,0.00,0,Wunderground v.1.15,2013-05-05 09:35:00,
2013-05-05 02:40:00,53.3,32.5,29.86,NNW,348,3.0,6.0,45,0.00,,,0.00,0,Wunderground v.1.15,2013-05-05 09:40:00,
2013-05-05 02:45:00,53.2,32.4,29.86,NNW,333,5.0,6.0,45,0.00,,,0.00,0,Wunderground v.1.15,2013-05-05 09:45:00,
2013-05-05 02:55:00,53.0,32.8,29.86,NNW,340,1.0,3.0,46,0.00,,,0.00,0,Wunderground v.1.15,2013-05-05 09:55:00,
2013-05-05 03:00:00,52.7,32.5,29.86,NNW,335,0.0,4.0,46,0.00,,,0.00,0,Wunderground v.1.15,2013-05-05 10:00:00,
2013-05-05 03:10:00,52.6,32.9,29.85,NNW,348,1.0,2.0,47,0.00,,,0.00,0,Wunderground v.1.15,2013-05-05 10:10:00,
2013-05-05 03:15:00,52.5,32.8,29.85,NNW,344,2.0,5.0,47,0.00,,,0.00,0,Wunderground v.1.15,2013-05-05 10:15:00,
2013-05-05 03:20:00,52.7,32.5,29.85,North,349,4.0,10.0,46,0.00,,,0.00,0,Wunderground v.1.15,2013-05-05 10:20:00,
2013-05-05 03:25:00,52.9,32.7,29.85,NNW,347,5.0,10.0,46,0.00,,,0.00,0,Wunderground v.1.15,2013-05-05 10:25:00,
2013-05-05 03:30:00,53.2,32.4,29.84,North,350,6.0,6.0,45,0.00,,,0.00,0,Wunderground v.1.15,2013-05-05 10:30:00,
2013-05-05 03:40:00,53.4,33.1,29.84,NNW,347,5.0,7.0,46,0.00,,,0.00,0,Wunderground v.1.15,2013-05-05 10:40:00,
2013-05-05 03:45:00,53.3,32.5,29.84,NNW,333,3.0,7.0,45,0.00,,,0.00,0,Wunderground v.1.15,2013-05-05 10:45:00,
2013-05-05 03:55:00,53.1,32.3,29.84,NW,319,1.0,2.0,45,0.00,,,0.00,0,Wunderground v.1.15,2013-05-05 10:55:00,
2013-05-05 04:00:00,52.8,32.6,29.84,NW,317,1.0,6.0,46,0.00,,,0.00,0,Wunderground v.1.15,2013-05-05 11:00:00,
2013-05-05 04:10:00,52.2,32.6,29.84,NNW,336,2.0,10.0,47,0.00,,,0.00,0,Wunderground v.1.15,2013-05-05 11:10:00,
2013-05-05 04:15:00,52.0,32.4,29.84,NW,318,5.0,10.0,47,0.00,,,0.00,0,Wunderground v.1.15,2013-05-05 11:15:00,
2013-05-05 04:20:00,51.9,32.8,29.84,NW,320,8.0,8.0,48,0.00,,,0.00,0,Wunderground v.1.15,2013-05-05 11:20:00,
2013-05-05 04:25:00,51.8,32.7,29.84,NW,325,8.0,8.0,48,0.00,,,0.00,0,Wunderground v.1.15,2013-05-05 11:25:00,
2013-05-05 04:30:00,51.8,32.7,29.83,NNW,344,7.0,10.0,48,0.00,,,0.00,0,Wunderground v.1.15,2013-05-05 11:30:00,
2013-05-05 04:35:00,52.0,32.4,29.83,NNW,348,8.0,10.0,47,0.00,,,0.00,0,Wunderground v.1.15,2013-05-05 11:35:00,
2013-05-05 04:45:00,52.2,32.6,29.83,NW,309,10.0,10.0,47,0.00,,,0.00,0,Wunderground v.1.15,2013-05-05 11:45:00,
2013-05-05 04:55:00,52.0,32.4,29.83,NW,317,9.0,11.0,47,0.00,,,0.00,0,Wunderground v.1.15,2013-05-05 11:55:00,
2013-05-05 05:00:00,51.9,32.8,29.84,NNW,327,6.0,6.0,48,0.00,,,0.00,0,Wunderground v.1.15,2013-05-05 12:00:00,
2013-05-05 05:10:00,51.7,32.6,29.84,NW,308,0.0,0.0,48,0.00,,,0.00,0,Wunderground v.1.15,2013-05-05 12:10:00,
2013-05-05 05:20:00,51.0,32.5,29.84,West,279,0.0,0.0,49,0.00,,,0.00,0,Wunderground v.1.15,2013-05-05 12:20:00,
2013-05-05 05:25:00,50.6,32.6,29.84,WNW,296,0.0,0.0,50,0.00,,,0.00,0,Wunderground v.1.15,2013-05-05 12:25:00,
2013-05-05 05:30:00,50.5,32.5,29.84,North,5,0.0,0.0,50,0.00,,,0.00,0,Wunderground v.1.15,2013-05-05 12:30:00,
2013-05-05 05:35:00,50.1,32.2,29.84,NW,321,0.0,0.0,50,0.00,,,0.00,0,Wunderground v.1.15,2013-05-05 12:35:00,
2013-05-05 05:45:00,49.0,32.1,29.84,NW,321,0.0,0.0,52,0.00,,,0.00,0,Wunderground v.1.15,2013-05-05 12:45:00,
2013-05-05 05:55:00,48.3,31.9,29.84,NW,321,0.0,0.0,53,0.00,,,0.00,7,Wunderground v.1.15,2013-05-05 12:55:00,
2013-05-05 06:00:00,48.0,32.1,29.84,NW,321,0.0,0.0,54,0.00,,,0.00,11,Wunderground v.1.15,2013-05-05 13:00:00,
2013-05-05 06:10:00,47.7,32.3,29.84,NW,321,0.0,0.0,55,0.00,,,0.00,18,Wunderground v.1.15,2013-05-05 13:10:00,
2013-05-05 06:15:00,47.7,32.3,29.84,NW,324,0.0,0.0,55,0.00,,,0.00,23,Wunderground v.1.15,2013-05-05 13:15:00,
2013-05-05 06:20:00,47.8,32.4,29.84,NW,321,0.0,0.0,55,0.00,,,0.00,32,Wunderground v.1.15,2013-05-05 13:20:00,
2013-05-05 06:30:00,48.0,32.6,29.84,NW,316,0.0,0.0,55,0.00,,,0.00,53,Wunderground v.1.15,2013-05-05 13:30:00,
2013-05-05 06:35:00,48.1,32.7,29.84,NW,316,0.0,0.0,55,0.00,,,0.00,67,Wunderground v.1.15,2013-05-05 13:35:00,
2013-05-05 06:45:00,48.7,33.2,29.85,NW,309,0.0,0.0,55,0.00,,,0.00,93,Wunderground v.1.15,2013-05-05 13:45:00,
2013-05-05 06:50:00,49.0,33.1,29.85,NNW,340,0.0,0.0,54,0.00,,,0.00,109,Wunderground v.1.15,2013-05-05 13:50:00,
2013-05-05 06:55:00,49.4,33.0,29.85,NW,319,0.0,0.0,53,0.00,,,0.00,127,Wunderground v.1.15,2013-05-05 13:55:00,
2013-05-05 07:00:00,49.7,33.2,29.85,NW,316,0.0,0.0,53,0.00,,,0.00,144,Wunderground v.1.15,2013-05-05 14:00:00,
2013-05-05 07:10:00,50.4,33.4,29.85,NW,317,2.0,4.0,52,0.00,,,0.00,181,Wunderground v.1.15,2013-05-05 14:10:00,
2013-05-05 07:15:00,50.7,33.7,29.85,NW,316,4.0,4.0,52,0.00,,,0.00,200,Wunderground v.1.15,2013-05-05 14:15:00,
2013-05-05 07:20:00,50.9,33.9,29.85,NW,318,4.0,5.0,52,0.00,,,0.00,218,Wunderground v.1.15,2013-05-05 14:20:00,
2013-05-05 07:25:00,51.1,34.1,29.85,NW,317,4.0,5.0,52,0.00,,,0.00,234,Wunderground v.1.15,2013-05-05 14:25:00,
2013-05-05 07:35:00,52.0,34.4,29.85,NW,323,7.0,10.0,51,0.00,,,0.00,265,Wunderground v.1.15,2013-05-05 14:35:00,
2013-05-05 07:45:00,52.7,35.1,29.85,NNW,327,6.0,8.0,51,0.00,,,0.00,295,Wunderground v.1.15,2013-05-05 14:45:00,
2013-05-05 07:50:00,53.0,34.8,29.85,NNW,347,7.0,9.0,50,0.00,,,0.00,309,Wunderground v.1.15,2013-05-05 14:50:00,
2013-05-05 07:55:00,53.1,34.9,29.85,NNW,340,9.0,9.0,50,0.00,,,0.00,325,Wunderground v.1.15,2013-05-05 14:55:00,
2013-05-05 08:00:00,53.3,34.6,29.85,NNW,328,8.0,8.0,49,0.00,,,0.00,343,Wunderground v.1.15,2013-05-05 15:00:00,
2013-05-05 08:10:00,54.1,34.8,29.85,NW,317,7.0,7.0,48,0.00,,,0.00,371,Wunderground v.1.15,2013-05-05 15:10:00,
2013-05-05 08:15:00,54.5,35.2,29.85,NNW,335,7.0,7.0,48,0.00,,,0.00,385,Wunderground v.1.15,2013-05-05 15:15:00,
2013-05-05 08:20:00,54.8,34.9,29.85,NNW,346,7.0,7.0,47,0.00,,,0.00,401,Wunderground v.1.15,2013-05-05 15:20:00,
2013-05-05 08:25:00,55.0,35.1,29.85,NNW,336,8.0,9.0,47,0.00,,,0.00,417,Wunderground v.1.15,2013-05-05 15:25:00,
2013-05-05 08:30:00,55.2,35.3,29.85,North,355,8.0,8.0,47,0.00,,,0.00,431,Wunderground v.1.15,2013-05-05 15:30:00,
2013-05-05 08:40:00,55.6,35.7,29.85,North,351,9.0,13.0,47,0.00,,,0.00,459,Wunderground v.1.15,2013-05-05 15:40:00,
2013-05-05 08:50:00,56.4,35.9,29.85,NW,316,7.0,9.0,46,0.00,,,0.00,489,Wunderground v.1.15,2013-05-05 15:50:00,
2013-05-05 08:55:00,56.6,36.0,29.85,NNW,338,6.0,9.0,46,0.00,,,0.00,503,Wunderground v.1.15,2013-05-05 15:55:00,
2013-05-05 09:00:00,56.7,36.1,29.85,NW,309,7.0,12.0,46,0.00,,,0.00,517,Wunderground v.1.15,2013-05-05 16:00:00,
2013-05-05 09:10:00,57.0,35.9,29.84,NNW,338,11.0,17.0,45,0.00,,,0.00,543,Wunderground v.1.15,2013-05-05 16:10:00,
2013-05-05 09:20:00,57.7,35.9,29.84,NNW,346,11.0,13.0,44,0.00,,,0.00,568,Wunderground v.1.15,2013-05-05 16:20:00,
2013-05-05 09:25:00,57.9,36.7,29.84,NNW,342,11.0,13.0,45,0.00,,,0.00,584,Wunderground v.1.15,2013-05-05 16:25:00,
2013-05-05 09:30:00,58.0,36.8,29.84,NNW,344,11.0,11.0,45,0.00,,,0.00,596,Wunderground v.1.15,2013-05-05 16:30:00,
2013-05-05 09:40:00,58.8,37.5,29.84,NNW,340,10.0,10.0,45,0.00,,,0.00,622,Wunderground v.1.15,2013-05-05 16:40:00,
2013-05-05 09:45:00,59.2,37.3,29.84,NW,325,10.0,12.0,44,0.00,,,0.00,635,Wunderground v.1.15,2013-05-05 16:45:00,
2013-05-05 09:55:00,60.1,37.5,29.83,NW,317,10.0,16.0,43,0.00,,,0.00,659,Wunderground v.1.15,2013-05-05 16:55:00,
2013-05-05 10:00:00,60.2,37.0,29.83,North,355,12.0,13.0,42,0.00,,,0.00,671,Wunderground v.1.15,2013-05-05 17:00:00,
2013-05-05 10:10:00,60.7,37.5,29.83,NNW,346,10.0,10.0,42,0.00,,,0.00,694,Wunderground v.1.15,2013-05-05 17:10:00,
2013-05-05 10:15:00,61.3,37.4,29.83,NNW,329,8.0,10.0,41,0.00,,,0.00,707,Wunderground v.1.15,2013-05-05 17:15:00,
2013-05-05 10:25:00,62.3,37.7,29.83,NW,323,9.0,13.0,40,0.00,,,0.00,726,Wunderground v.1.15,2013-05-05 17:25:00,
2013-05-05 10:30:00,62.6,37.9,29.83,North,349,11.0,11.0,40,0.00,,,0.00,737,Wunderground v.1.15,2013-05-05 17:30:00,
2013-05-05 10:40:00,63.2,37.2,29.83,North,355,11.0,11.0,38,0.00,,,0.00,756,Wunderground v.1.15,2013-05-05 17:40:00,
2013-05-05 10:45:00,63.5,36.0,29.83,NNW,340,13.0,13.0,36,0.00,,,0.00,768,Wunderground v.1.15,2013-05-05 17:45:00,
2013-05-05 10:50:00,63.5,36.0,29.83,NW,317,12.0,16.0,36,0.00,,,0.00,775,Wunderground v.1.15,2013-05-05 17:50:00,
2013-05-05 11:00:00,64.2,36.7,29.83,NNW,334,13.0,14.0,36,0.00,,,0.00,795,Wunderground v.1.15,2013-05-05 18:00:00,
2013-05-05 11:10:00,64.9,37.3,29.82,NW,315,14.0,14.0,36,0.00,,,0.00,812,Wunderground v.1.15,2013-05-05 18:10:00,
2013-05-05 11:15:00,65.5,37.1,29.82,NNW,342,14.0,16.0,35,0.00,,,0.00,821,Wunderground v.1.15,2013-05-05 18:15:00,
2013-05-05 11:20:00,65.5,37.1,29.81,NW,323,15.0,15.0,35,0.00,,,0.00,830,Wunderground v.1.15,2013-05-05 18:20:00,
2013-05-05 11:30:00,66.0,37.5,29.81,NNW,328,15.0,16.0,35,0.00,,,0.00,842,Wunderground v.1.15,2013-05-05 18:30:00,
2013-05-05 11:40:00,66.3,37.8,29.81,NW,321,15.0,17.0,35,0.00,,,0.00,854,Wunderground v.1.15,2013-05-05 18:40:00,
2013-05-05 11:45:00,66.6,36.6,29.81,NNW,328,14.0,17.0,33,0.00,,,0.00,863,Wunderground v.1.15,2013-05-05 18:45:00,
2013-05-05 11:50:00,67.1,37.8,29.81,NW,323,14.0,14.0,34,0.00,,,0.00,865,Wunderground v.1.15,2013-05-05 18:50:00,
2013-05-05 11:55:00,67.4,37.3,29.80,North,355,13.0,15.0,33,0.00,,,0.00,875,Wunderground v.1.15,2013-05-05 18:55:00,
2013-05-05 12:00:00,67.5,36.6,29.80,North,355,15.0,19.0,32,0.00,,,0.00,879,Wunderground v.1.15,2013-05-05 19:00:00,
2013-05-05 12:10:00,67.9,36.9,29.80,NNW,343,15.0,15.0,32,0.00,,,0.00,888,Wunderground v.1.15,2013-05-05 19:10:00,
2013-05-05 12:15:00,68.4,36.6,29.80,North,355,14.0,15.0,31,0.00,,,0.00,889,Wunderground v.1.15,2013-05-05 19:15:00,
2013-05-05 12:20:00,68.6,35.9,29.80,NNW,348,13.0,13.0,30,0.00,,,0.00,895,Wunderground v.1.15,2013-05-05 19:20:00,
2013-05-05 12:30:00,69.0,37.1,29.79,North,351,14.0,16.0,31,0.00,,,0.00,898,Wunderground v.1.15,2013-05-05 19:30:00,
2013-05-05 12:35:00,68.9,37.0,29.79,NNW,338,14.0,16.0,31,0.00,,,0.00,902,Wunderground v.1.15,2013-05-05 19:35:00,
2013-05-05 12:45:00,68.8,36.9,29.79,NNW,337,14.0,22.0,31,0.00,,,0.00,905,Wunderground v.1.15,2013-05-05 19:45:00,
2013-05-05 12:50:00,69.1,36.3,29.78,NNW,345,14.0,14.0,30,0.00,,,0.00,907,Wunderground v.1.15,2013-05-05 19:50:00,
2013-05-05 12:55:00,69.5,36.7,29.78,NNW,338,14.0,14.0,30,0.00,,,0.00,907,Wunderground v.1.15,2013-05-05 19:55:00,
2013-05-05 13:00:00,69.6,36.8,29.78,NNW,342,13.0,16.0,30,0.00,,,0.00,909,Wunderground v.1.15,2013-05-05 20:00:00,
2013-05-05 13:10:00,69.6,36.8,29.77,NNW,339,14.0,14.0,30,0.00,,,0.00,909,Wunderground v.1.15,2013-05-05 20:10:00,
2013-05-05 13:20:00,69.7,36.9,29.77,NNW,336,14.0,21.0,30,0.00,,,0.00,909,Wunderground v.1.15,2013-05-05 20:20:00,
2013-05-05 13:25:00,69.9,36.2,29.77,NW,322,15.0,21.0,29,0.00,,,0.00,909,Wunderground v.1.15,2013-05-05 20:25:00,
2013-05-05 13:30:00,70.1,36.3,29.77,North,5,15.0,15.0,29,0.00,,,0.00,905,Wunderground v.1.15,2013-05-05 20:30:00,
2013-05-05 13:35:00,70.5,36.7,29.77,NNW,347,14.0,15.0,29,0.00,,,0.00,904,Wunderground v.1.15,2013-05-05 20:35:00,
2013-05-05 13:40:00,70.5,36.7,29.77,NW,322,14.0,16.0,29,0.00,,,0.00,902,Wunderground v.1.15,2013-05-05 20:40:00,
2013-05-05 13:50:00,70.5,36.7,29.77,NNW,337,15.0,15.0,29,0.00,,,0.00,895,Wunderground v.1.15,2013-05-05 20:50:00,
2013-05-05 13:55:00,70.6,36.8,29.76,NW,325,15.0,16.0,29,0.00,,,0.00,893,Wunderground v.1.15,2013-05-05 20:55:00,
2013-05-05 14:00:00,70.9,36.1,29.76,NNW,348,15.0,15.0,28,0.00,,,0.00,888,Wunderground v.1.15,2013-05-05 21:00:00,
2013-05-05 14:10:00,71.2,37.3,29.76,North,350,14.0,16.0,29,0.00,,,0.00,879,Wunderground v.1.15,2013-05-05 21:10:00,
2013-05-05 14:15:00,71.4,36.6,29.76,NNW,328,13.0,16.0,28,0.00,,,0.00,874,Wunderground v.1.15,2013-05-05 21:15:00,
2013-05-05 14:25:00,71.6,36.8,29.76,NNW,346,13.0,14.0,28,0.00,,,0.00,861,Wunderground v.1.15,2013-05-05 21:25:00,
2013-05-05 14:30:00,71.7,37.7,29.76,NW,318,13.0,17.0,29,0.00,,,0.00,854,Wunderground v.1.15,2013-05-05 21:30:00,
2013-05-05 14:35:00,71.6,36.8,29.76,NNW,330,14.0,17.0,28,0.00,,,0.00,847,Wunderground v.1.15,2013-05-05 21:35:00,
2013-05-05 14:40:00,71.9,37.9,29.75,NNW,343,14.0,14.0,29,0.00,,,0.00,842,Wunderground v.1.15,2013-05-05 21:40:00,
2013-05-05 14:45:00,72.1,37.2,29.75,NNW,340,13.0,17.0,28,0.00,,,0.00,833,Wunderground v.1.15,2013-05-05 21:45:00,
2013-05-05 14:50:00,72.0,37.1,29.75,NNW,339,14.0,14.0,28,0.00,,,0.00,828,Wunderground v.1.15,2013-05-05 21:50:00,
2013-05-05 15:00:00,72.6,37.6,29.75,NNW,346,12.0,17.0,28,0.00,,,0.00,812,Wunderground v.1.15,2013-05-05 22:00:00,
2013-05-05 15:10:00,72.8,37.8,29.74,NNW,341,13.0,19.0,28,0.00,,,0.00,796,Wunderground v.1.15,2013-05-05 22:10:00,
2013-05-05 15:15:00,72.7,36.8,29.74,North,11,12.0,19.0,27,0.00,,,0.00,788,Wunderground v.1.15,2013-05-05 22:15:00,
2013-05-05 15:20:00,72.7,37.7,29.74,NW,326,11.0,12.0,28,0.00,,,0.00,777,Wunderground v.1.15,2013-05-05 22:20:00,
2013-05-05 15:25:00,72.7,37.7,29.74,North,350,13.0,13.0,28,0.00,,,0.00,770,Wunderground v.1.15,2013-05-05 22:25:00,
2013-05-05 15:35:00,73.4,37.4,29.74,NNW,339,11.0,18.0,27,0.00,,,0.00,749,Wunderground v.1.15,2013-05-05 22:35:00,
2013-05-05 15:40:00,73.3,37.3,29.73,NNW,330,12.0,19.0,27,0.00,,,0.00,740,Wunderground v.1.15,2013-05-05 22:40:00,
2013-05-05 15:45:00,73.1,37.1,29.74,North,349,16.0,19.0,27,0.00,,,0.00,729,Wunderground v.1.15,2013-05-05 22:45:00,
2013-05-05 15:50:00,72.9,36.9,29.74,North,355,17.0,17.0,27,0.00,,,0.00,717,Wunderground v.1.15,2013-05-05 22:50:00,
2013-05-05 15:55:00,72.9,36.9,29.73,NW,321,15.0,17.0,27,0.00,,,0.00,707,Wunderground v.1.15,2013-05-05 22:55:00,
2013-05-05 16:05:00,73.4,36.4,29.73,NW,321,13.0,20.0,26,0.00,,,0.00,682,Wunderground v.1.15,2013-05-05 23:05:00,
2013-05-05 16:10:00,73.0,37.0,29.73,NNW,348,16.0,16.0,27,0.00,,,0.00,671,Wunderground v.1.15,2013-05-05 23:10:00,
2013-05-05 16:15:00,72.8,36.9,29.72,NNW,345,16.0,20.0,27,0.00,,,0.00,659,Wunderground v.1.15,2013-05-05 23:15:00,
2013-05-05 16:20:00,72.9,36.9,29.72,North,355,15.0,15.0,27,0.00,,,0.00,645,Wunderground v.1.15,2013-05-05 23:20:00,
2013-05-05 16:25:00,73.1,37.1,29.72,NW,326,15.0,15.0,27,0.00,,,0.00,636,Wunderground v.1.15,2013-05-05 23:25:00,
2013-05-05 16:30:00,73.0,37.0,29.72,North,351,15.0,15.0,27,0.00,,,0.00,622,Wunderground v.1.15,2013-05-05 23:30:00,
2013-05-05 16:40:00,72.9,36.9,29.72,North,355,15.0,15.0,27,0.00,,,0.00,598,Wunderground v.1.15,2013-05-05 23:40:00,
2013-05-05 16:45:00,73.2,36.2,29.72,NNW,331,13.0,15.0,26,0.00,,,0.00,584,Wunderground v.1.15,2013-05-05 23:45:00,
2013-05-05 16:50:00,73.3,36.3,29.72,NNW,346,13.0,16.0,26,0.00,,,0.00,570,Wunderground v.1.15,2013-05-05 23:50:00,
2013-05-05 16:55:00,73.1,37.1,29.72,NNW,336,14.0,19.0,27,0.00,,,0.00,557,Wunderground v.1.15,2013-05-05 23:55:00,
2013-05-05 17:05:00,72.8,35.9,29.71,North,5,17.0,17.0,26,0.00,,,0.00,533,Wunderground v.1.15,2013-05-06 00:05:00,
2013-05-05 17:10:00,72.7,35.8,29.71,North,360,16.0,17.0,26,0.00,,,0.00,517,Wunderground v.1.15,2013-05-06 00:10:00,
2013-05-05 17:15:00,72.9,36.9,29.71,North,355,14.0,17.0,27,0.00,,,0.00,503,Wunderground v.1.15,2013-05-06 00:15:00,
2013-05-05 17:20:00,72.7,35.8,29.71,NNW,340,15.0,15.0,26,0.00,,,0.00,489,Wunderground v.1.15,2013-05-06 00:20:00,
2013-05-05 17:25:00,72.4,35.6,29.71,North,10,17.0,17.0,26,0.00,,,0.00,475,Wunderground v.1.15,2013-05-06 00:25:00,
2013-05-05 17:30:00,72.4,35.6,29.71,North,5,16.0,16.0,26,0.00,,,0.00,457,Wunderground v.1.15,2013-05-06 00:30:00,
2013-05-05 17:35:00,72.5,35.6,29.71,NNW,338,15.0,20.0,26,0.00,,,0.00,443,Wunderground v.1.15,2013-05-06 00:35:00,
2013-05-05 17:40:00,72.5,36.6,29.71,North,11,15.0,15.0,27,0.00,,,0.00,431,Wunderground v.1.15,2013-05-06 00:40:00,
2013-05-05 17:50:00,72.4,36.5,29.71,NNW,329,14.0,14.0,27,0.00,,,0.00,397,Wunderground v.1.15,2013-05-06 00:50:00,
2013-05-05 17:55:00,72.3,35.5,29.71,North,9,15.0,19.0,26,0.00,,,0.00,381,Wunderground v.1.15,2013-05-06 00:55:00,
2013-05-05 18:05:00,72.1,35.3,29.71,NNW,342,15.0,15.0,26,0.00,,,0.00,353,Wunderground v.1.15,2013-05-06 01:05:00,
2013-05-05 18:10:00,71.8,36.0,29.71,North,350,15.0,15.0,27,0.00,,,0.00,338,Wunderground v.1.15,2013-05-06 01:10:00,
2013-05-05 18:15:00,71.8,36.0,29.71,NNW,332,15.0,15.0,27,0.00,,,0.00,322,Wunderground v.1.15,2013-05-06 01:15:00,
2013-05-05 18:25:00,71.6,36.8,29.71,NNW,329,12.0,15.0,28,0.00,,,0.00,292,Wunderground v.1.15,2013-05-06 01:25:00,
2013-05-05 18:30:00,71.6,35.8,29.71,NNW,343,12.0,16.0,27,0.00,,,0.00,276,Wunderground v.1.15,2013-05-06 01:30:00,
2013-05-05 18:35:00,71.4,35.7,29.71,NNW,343,13.0,16.0,27,0.00,,,0.00,260,Wunderground v.1.15,2013-05-06 01:35:00,
2013-05-05 18:40:00,71.3,35.6,29.71,NW,313,12.0,16.0,27,0.00,,,0.00,244,Wunderground v.1.15,2013-05-06 01:40:00,
2013-05-05 18:45:00,71.1,35.4,29.71,NNW,340,13.0,19.0,27,0.00,,,0.00,225,Wunderground v.1.15,2013-05-06 01:45:00,
2013-05-05 18:55:00,70.7,36.0,29.71,NNW,336,15.0,16.0,28,0.00,,,0.00,192,Wunderground v.1.15,2013-05-06 01:55:00,
2013-05-05 19:05:00,70.3,36.5,29.72,NNW,342,12.0,14.0,29,0.00,,,0.00,155,Wunderground v.1.15,2013-05-06 02:05:00,
2013-05-05 19:10:00,70.1,36.3,29.72,NNW,346,10.0,19.0,29,0.00,,,0.00,137,Wunderground v.1.15,2013-05-06 02:10:00,
2013-05-05 19:15:00,69.9,36.2,29.72,NNW,345,10.0,19.0,29,0.00,,,0.00,123,Wunderground v.1.15,2013-05-06 02:15:00,
2013-05-05 19:20:00,69.6,36.8,29.72,NNW,338,11.0,13.0,30,0.00,,,0.00,105,Wunderground v.1.15,2013-05-06 02:20:00,
2013-05-05 19:30:00,68.9,37.8,29.72,NNW,332,9.0,11.0,32,0.00,,,0.00,76,Wunderground v.1.15,2013-05-06 02:30:00,
2013-05-05 19:35:00,68.5,37.5,29.72,North,355,11.0,14.0,32,0.00,,,0.00,62,Wunderground v.1.15,2013-05-06 02:35:00,
2013-05-05 19:40:00,68.2,37.2,29.72,North,9,11.0,12.0,32,0.00,,,0.00,49,Wunderground v.1.15,2013-05-06 02:40:00,
2013-05-05 19:45:00,68.0,37.0,29.72,North,360,10.0,12.0,32,0.00,,,0.00,39,Wunderground v.1.15,2013-05-06 02:45:00,
2013-05-05 19:55:00,67.6,36.7,29.73,NNW,348,9.0,14.0,32,0.00,,,0.00,23,Wunderground v.1.15,2013-05-06 02:55:00,
2013-05-05 20:00:00,67.3,37.2,29.73,North,355,7.0,7.0,33,0.00,,,0.00,16,Wunderground v.1.15,2013-05-06 03:00:00,
2013-05-05 20:10:00,66.2,37.7,29.73,North,355,6.0,10.0,35,0.00,,,0.00,9,Wunderground v.1.15,2013-05-06 03:10:00,
2013-05-05 20:15:00,65.9,37.5,29.73,North,355,6.0,12.0,35,0.00,,,0.00,5,Wunderground v.1.15,2013-05-06 03:15:00,
2013-05-05 20:20:00,65.6,37.2,29.73,NNW,327,5.0,5.0,35,0.00,,,0.00,0,Wunderground v.1.15,2013-05-06 03:20:00,
2013-05-05 20:25:00,65.2,36.8,29.73,NNW,340,6.0,13.0,35,0.00,,,0.00,0,Wunderground v.1.15,2013-05-06 03:25:00,
2013-05-05 20:30:00,64.9,37.3,29.73,NNW,343,9.0,9.0,36,0.00,,,0.00,0,Wunderground v.1.15,2013-05-06 03:30:00,
2013-05-05 20:35:00,64.7,37.1,29.73,North,355,8.0,9.0,36,0.00,,,0.00,0,Wunderground v.1.15,2013-05-06 03:35:00,
2013-05-05 20:40:00,64.7,36.4,29.73,NNW,348,7.0,7.0,35,0.00,,,0.00,0,Wunderground v.1.15,2013-05-06 03:40:00,
2013-05-05 20:45:00,64.8,36.5,29.74,NNW,342,7.0,15.0,35,0.00,,,0.00,0,Wunderground v.1.15,2013-05-06 03:45:00,
2013-05-05 20:50:00,64.8,36.5,29.74,NW,316,6.0,8.0,35,0.00,,,0.00,0,Wunderground v.1.15,2013-05-06 03:50:00,
2013-05-05 21:00:00,64.2,36.7,29.74,NNW,329,4.0,4.0,36,0.00,,,0.00,0,Wunderground v.1.15,2013-05-06 04:00:00,
2013-05-05 21:05:00,63.7,36.2,29.74,NW,323,3.0,5.0,36,0.00,,,0.00,0,Wunderground v.1.15,2013-05-06 04:05:00,
2013-05-05 21:10:00,63.4,36.0,29.74,NNW,345,3.0,4.0,36,0.00,,,0.00,0,Wunderground v.1.15,2013-05-06 04:10:00,
2013-05-05 21:15:00,63.4,36.0,29.75,NNW,346,4.0,11.0,36,0.00,,,0.00,0,Wunderground v.1.15,2013-05-06 04:15:00,
2013-05-05 21:20:00,63.3,36.6,29.75,NNW,341,5.0,6.0,37,0.00,,,0.00,0,Wunderground v.1.15,2013-05-06 04:20:00,
2013-05-05 21:25:00,63.2,36.5,29.75,NNW,338,7.0,7.0,37,0.00,,,0.00,0,Wunderground v.1.15,2013-05-06 04:25:00,
2013-05-05 21:30:00,62.7,36.7,29.75,NW,321,6.0,8.0,38,0.00,,,0.00,0,Wunderground v.1.15,2013-05-06 04:30:00,
2013-05-05 21:35:00,62.6,35.9,29.75,NNW,328,7.0,8.0,37,0.00,,,0.00,0,Wunderground v.1.15,2013-05-06 04:35:00,
2013-05-05 21:40:00,62.7,36.0,29.75,NNW,334,8.0,8.0,37,0.00,,,0.00,0,Wunderground v.1.15,2013-05-06 04:40:00,
2013-05-05 21:45:00,62.6,35.3,29.76,NW,323,7.0,11.0,36,0.00,,,0.00,0,Wunderground v.1.15,2013-05-06 04:45:00,
2013-05-05 21:50:00,62.7,35.3,29.75,North,355,7.0,7.0,36,0.00,,,0.00,0,Wunderground v.1.15,2013-05-06 04:50:00,
2013-05-05 22:00:00,62.7,34.6,29.76,NNW,338,5.0,5.0,35,0.00,,,0.00,0,Wunderground v.1.15,2013-05-06 05:00:00,
2013-05-05 22:10:00,62.7,34.6,29.76,NNW,340,6.0,6.0,35,0.00,,,0.00,0,Wunderground v.1.15,2013-05-06 05:10:00,
2013-05-05 22:20:00,61.9,34.6,29.77,NW,323,1.0,1.0,36,0.00,,,0.00,0,Wunderground v.1.15,2013-05-06 05:20:00,
2013-05-05 22:25:00,61.4,34.9,29.76,NW,309,0.0,1.0,37,0.00,,,0.00,0,Wunderground v.1.15,2013-05-06 05:25:00,
2013-05-05 22:30:00,61.2,34.7,29.76,WNW,300,0.0,1.0,37,0.00,,,0.00,0,Wunderground v.1.15,2013-05-06 05:30:00,
2013-05-05 22:35:00,61.3,34.8,29.77,WNW,302,1.0,1.0,37,0.00,,,0.00,0,Wunderground v.1.15,2013-05-06 05:35:00,
2013-05-05 22:40:00,61.4,34.2,29.77,WNW,289,1.0,1.0,36,0.00,,,0.00,0,Wunderground v.1.15,2013-05-06 05:40:00,
2013-05-05 22:50:00,61.2,34.0,29.77,WNW,289,0.0,0.0,36,0.00,,,0.00,0,Wunderground v.1.15,2013-05-06 05:50:00,
2013-05-05 23:00:00,61.0,33.8,29.77,West,281,0.0,0.0,36,0.00,,,0.00,0,Wunderground v.1.15,2013-05-06 06:00:00,
2013-05-05 23:10:00,60.5,34.1,29.77,West,261,1.0,1.0,37,0.00,,,0.00,0,Wunderground v.1.15,2013-05-06 06:10:00,
2013-05-05 23:15:00,60.1,33.7,29.77,West,261,0.0,1.0,37,0.00,,,0.00,0,Wunderground v.1.15,2013-05-06 06:15:00,
2013-05-05 23:20:00,59.7,34.0,29.77,WSW,253,0.0,0.0,38,0.00,,,0.00,0,Wunderground v.1.15,2013-05-06 06:20:00,
2013-05-05 23:30:00,59.5,33.9,29.77,WSW,251,0.0,0.0,38,0.00,,,0.00,0,Wunderground v.1.15,2013-05-06 06:30:00,
2013-05-05 23:35:00,59.5,33.9,29.77,WSW,251,0.0,0.0,38,0.00,,,0.00,0,Wunderground v.1.15,2013-05-06 06:35:00,
2013-05-05 23:40:00,59.6,33.9,29.78,WSW,252,0.0,0.0,38,0.00,,,0.00,0,Wunderground v.1.15,2013-05-06 06:40:00,
2013-05-05 23:50:00,59.8,34.1,29.77,West,261,0.0,0.0,38,0.00,,,0.00,0,Wunderground v.1.15,2013-05-06 06:50:00,
2013-05-05 23:55:00,59.8,34.8,29.77,West,262,0.0,0.0,39,0.00,,,0.00,0,Wunderground v.1.15,2013-05-06 06:55:00,